Weather History for Slayton, MN

Change the Weather History Date:

Thursday, October 25, 2012

  Actual Average (KOTG) Record (KOTG)
Temperature  
Mean Temperature 34 °F -  
Max Temperature 37 °F 51 °F 80 °F (1989)
Min Temperature 31 °F 34 °F 19 °F (1972)
Degree Days  
Heating Degree Days 31    
Moisture  
Dew Point 30 °F    
Average Humidity 88    
Maximum Humidity 100    
Minimum Humidity 73    
Precipitation  
Precipitation 0.03 in - - ()
Sea Level Pressure  
Sea Level Pressure 29.99 in    
Wind  
Wind Speed 22 mph (NW)    
Max Wind Speed 30 mph    
Max Gust Speed 38 mph    
Visibility 7 miles    
Events Rain , Snow , Thunderstorm    
Averages and records for this station are not official NWS values.
T = Trace of Precipitation, MM = Missing Value Source: NWS Daily Summary

Daily Weather History Graph

Daily Weather History Graph

Search for Another Location

Airport:

Trip Planner

Search our weather history database for the weather conditions in past years. The results will help you decide how hot, cold, wet, or windy it might be!

Date:

Astronomy

Oct. 25, 2012 Rise Set
Actual Time 7:51 AM CDT 6:22 PM CDT
Civil Twilight 7:21 AM CDT 6:52 PM CDT
Nautical Twilight 6:47 AM CDT 7:25 PM CDT
Astronomical Twilight 6:14 AM CDT 7:59 PM CDT
Moon 4:15 PM CDT (10/25) 3:41 AM CDT (10/25)
Length of Visible Light 11h 30m
Length of Day
10h 31m
Waxing Gibbous, 84% of the Moon is Illuminated
Oct 25
Waxing Gibbous
Oct 29
Full
Nov 6
Last Quarter
Nov 13
New
Nov 20
First Quarter

Hourly Weather History & Observations

Time (CDT) Temp. Windchill Dew Point Humidity Pressure Visibility Wind Dir Wind Speed Gust Speed Precip Events Conditions
12:15 AM 37.0 °F 25.9 °F 35.6 °F 95% 29.84 in 7.0 mi NNW 23.0 mph 31.1 mph N/A   Overcast
12:34 AM 36.7 °F 25.4 °F 35.1 °F 94% 29.82 in 10.0 mi NNW 23.0 mph 31.1 mph N/A   Overcast
12:54 AM 36.9 °F 25.6 °F 35.2 °F 94% 29.82 in 10.0 mi North 23.0 mph 32.2 mph N/A   Overcast
1:14 AM 36.9 °F 26.8 °F 35.2 °F 94% 29.82 in 10.0 mi North 18.4 mph 28.8 mph N/A Thunderstorm Overcast
1:34 AM 36.5 °F 24.4 °F 34.7 °F 93% 29.81 in 10.0 mi North 26.5 mph 31.1 mph N/A   Overcast
1:54 AM 36.3 °F 24.2 °F 34.2 °F 92% 29.81 in 10.0 mi North 26.5 mph 32.2 mph N/A   Overcast
2:14 AM 36.5 °F 26.3 °F 34.3 °F 92% 29.86 in 10.0 mi NNW 18.4 mph 27.6 mph N/A   Overcast
2:34 AM 35.6 °F 22.7 °F 34.5 °F 96% 29.79 in 7.0 mi North 28.8 mph 38.0 mph N/A Rain Light Rain
2:54 AM 34.7 °F 22.0 °F 34.3 °F 99% 29.79 in 7.0 mi NNW 26.5 mph 34.5 mph N/A Rain Light Rain
3:14 AM 34.2 °F 22.1 °F 33.8 °F 99% 29.81 in 7.0 mi NNW 23.0 mph 36.8 mph N/A   Light Drizzle
3:35 AM 33.8 °F 20.1 °F 33.4 °F 99% 29.79 in 4.0 mi NNW 29.9 mph 36.8 mph N/A Snow Light Snow
3:54 AM 33.3 °F 20.6 °F 33.1 °F 99% 29.83 in 5.0 mi NW 24.2 mph 36.8 mph 0.01 in Rain Rain
4:14 AM 32.7 °F 21.1 °F 32.4 °F 99% 29.83 in 4.0 mi NNW 19.6 mph 27.6 mph N/A Snow Light Snow
4:35 AM 32.2 °F 18.6 °F 32.0 °F 99% 29.82 in 3.0 mi NNW 26.5 mph 34.5 mph 0.01 in Snow Light Snow
4:54 AM 32.0 °F 18.6 °F 32.0 °F 100% 29.81 in 2.0 mi NNW 25.3 mph 35.7 mph 0.02 in Snow Light Snow
5:14 AM 32.0 °F 18.9 °F 32.0 °F 100% 29.82 in 1.8 mi NNW 24.2 mph 33.4 mph N/A Snow Light Snow
5:35 AM 32.0 °F 18.9 °F 31.8 °F 99% 29.83 in 1.8 mi NNW 24.2 mph 32.2 mph N/A Snow Light Snow
5:55 AM 32.0 °F 19.2 °F 31.6 °F 99% 29.85 in 1.8 mi NNW 23.0 mph 32.2 mph N/A Snow Light Snow
6:14 AM 32.0 °F 18.9 °F 31.6 °F 99% 29.85 in 1.5 mi NNW 24.2 mph 33.4 mph N/A Snow Light Snow
6:54 AM 31.8 °F 18.7 °F 31.1 °F 97% 29.87 in 2.5 mi NNW 24.2 mph 31.1 mph N/A Snow Light Snow
7:34 AM 31.6 °F 18.7 °F 31.1 °F 98% 29.87 in 1.8 mi NW 23.0 mph 31.1 mph N/A Snow Light Snow
7:55 AM 31.1 °F 17.4 °F 30.4 °F 97% 29.87 in 2.0 mi NNW 25.3 mph 32.2 mph N/A Snow Light Snow
8:14 AM 31.1 °F 18.0 °F 30.2 °F 96% 29.89 in 2.0 mi NNW 23.0 mph 32.2 mph N/A Snow Light Snow
8:34 AM 31.1 °F 18.0 °F 30.2 °F 96% 29.91 in 5.0 mi NNW 23.0 mph 29.9 mph N/A Snow Light Snow
8:54 AM 31.1 °F 18.9 °F 30.0 °F 96% 29.91 in 2.5 mi NNW 19.6 mph 29.9 mph N/A Snow Light Snow
9:16 AM 31.1 °F 18.3 °F 30.2 °F 96% 29.93 in 0.8 mi NW 21.9 mph 31.1 mph N/A Snow Light Snow
9:34 AM 31.1 °F 18.6 °F 30.2 °F 96% 29.95 in 1.0 mi NW 20.7 mph 27.6 mph N/A Snow Light Snow
9:55 AM 31.1 °F 18.0 °F 30.0 °F 96% 29.95 in 2.0 mi NNW 23.0 mph 32.2 mph N/A Snow Light Snow
10:14 AM 32.0 °F 19.5 °F 29.1 °F 89% 29.97 in 7.0 mi NW 21.9 mph 27.6 mph N/A Snow Light Snow
10:34 AM 31.8 °F 19.0 °F 29.3 °F 90% 29.97 in 2.5 mi NW 23.0 mph 29.9 mph N/A Snow Light Snow
10:54 AM 31.8 °F 19.6 °F 29.7 °F 92% 29.98 in 2.0 mi NW 20.7 mph 28.8 mph N/A Snow Light Snow
11:14 AM 32.0 °F 18.9 °F 29.1 °F 89% 29.98 in 10.0 mi NW 24.2 mph 31.1 mph N/A   Overcast
11:54 AM 32.2 °F 18.9 °F 28.4 °F 86% 29.99 in 10.0 mi NW 25.3 mph 32.2 mph N/A   Overcast
12:15 PM 32.9 °F 20.7 °F 28.9 °F 85% 30.00 in 10.0 mi NW 21.9 mph 33.4 mph N/A   Overcast
12:34 PM 32.9 °F 19.8 °F 29.3 °F 87% 30.01 in 10.0 mi NW 25.3 mph 29.9 mph N/A   Overcast
12:55 PM 33.1 °F 19.8 °F 29.1 °F 85% 30.01 in 10.0 mi NW 26.5 mph 29.9 mph N/A   Overcast
1:14 PM 33.4 °F 21.4 °F 28.9 °F 84% 30.01 in 10.0 mi NW 21.9 mph 33.4 mph N/A   Mostly Cloudy
1:54 PM 33.8 °F 20.8 °F 28.9 °F 82% 30.02 in 10.0 mi NW 26.5 mph 31.1 mph N/A   Mostly Cloudy
2:14 PM 33.8 °F 21.3 °F 29.3 °F 84% 30.02 in 10.0 mi NW 24.2 mph - N/A   Overcast
2:34 PM 33.8 °F 22.2 °F 28.8 °F 82% 30.03 in 10.0 mi NW 20.7 mph 27.6 mph N/A   Overcast
2:55 PM 33.8 °F 22.8 °F 28.6 °F 81% 30.04 in 10.0 mi NW 18.4 mph 21.9 mph N/A   Overcast
3:14 PM 33.8 °F 21.9 °F 28.9 °F 82% 30.04 in 10.0 mi NW 21.9 mph 27.6 mph N/A   Overcast
3:34 PM 34.0 °F 22.7 °F 29.1 °F 82% 30.06 in 10.0 mi NW 19.6 mph 25.3 mph N/A   Overcast
3:54 PM 33.8 °F 21.9 °F 29.5 °F 84% 30.06 in 10.0 mi WNW 21.9 mph - N/A   Overcast
4:14 PM 33.8 °F 21.9 °F 29.7 °F 85% 30.07 in 10.0 mi WNW 21.9 mph 25.3 mph N/A   Overcast
4:34 PM 33.8 °F 21.0 °F 28.8 °F 82% 30.08 in 10.0 mi WNW 25.3 mph 28.8 mph N/A   Overcast
4:54 PM 33.8 °F 21.6 °F 28.9 °F 82% 30.10 in 10.0 mi NW 23.0 mph 32.2 mph N/A   Overcast
5:34 PM 34.2 °F 23.3 °F 28.6 °F 80% 30.12 in 10.0 mi WNW 18.4 mph - N/A   Overcast
5:55 PM 34.0 °F 24.2 °F 28.6 °F 81% 30.13 in 10.0 mi NW 15.0 mph - N/A   Overcast
6:14 PM 34.0 °F 23.4 °F 28.4 °F 80% 30.14 in 10.0 mi WNW 17.3 mph 21.9 mph N/A   Overcast
6:34 PM 34.0 °F 23.0 °F 26.8 °F 75% 30.16 in 10.0 mi NW 18.4 mph - N/A   Overcast
6:54 PM 34.0 °F 24.6 °F 27.1 °F 76% 30.17 in 10.0 mi WNW 13.8 mph - N/A   Overcast
7:14 PM 34.0 °F 25.0 °F 27.3 °F 77% 30.18 in 10.0 mi WNW 12.7 mph - N/A   Overcast
7:34 PM 34.2 °F 24.0 °F 27.1 °F 75% 30.18 in 10.0 mi WNW 16.1 mph - N/A   Overcast
8:34 PM 34.2 °F 24.0 °F 27.0 °F 75% 30.20 in 10.0 mi WNW 16.1 mph 21.9 mph N/A   Overcast
8:54 PM 34.3 °F 24.6 °F 27.5 °F 76% 30.21 in 10.0 mi WNW 15.0 mph - N/A   Overcast
9:14 PM 34.2 °F 25.2 °F 27.1 °F 75% 30.21 in 10.0 mi WNW 12.7 mph - N/A   Overcast
9:34 PM 34.2 °F 25.2 °F 27.7 °F 77% 30.21 in 10.0 mi WNW 12.7 mph - N/A   Overcast
9:54 PM 34.2 °F 25.7 °F 27.9 °F 78% 30.22 in 10.0 mi WNW 11.5 mph - N/A   Overcast
10:14 PM 34.7 °F 24.7 °F 27.1 °F 74% 30.23 in 10.0 mi NW 16.1 mph 24.2 mph N/A   Overcast
10:54 PM 34.7 °F 24.3 °F 27.0 °F 73% 30.25 in 10.0 mi WNW 17.3 mph - N/A   Overcast
11:14 PM 34.3 °F 25.9 °F 27.7 °F 77% 30.25 in 10.0 mi WNW 11.5 mph 23.0 mph N/A   Overcast
11:34 PM 34.3 °F 25.5 °F 27.3 °F 76% 30.25 in 10.0 mi WNW 12.7 mph - N/A   Overcast
11:55 PM 34.0 °F 24.2 °F 28.2 °F 79% 30.26 in 10.0 mi WNW 15.0 mph - N/A   Overcast